Location: Trout Lake
(45.9980°N, 121.5270°W)
Time: 19:38:36
(UTC-08:00)

CZ-4B R/B - Pass Details

Date: 06 December 2023
Orbit: 702 x 800 km, 99.0° (Epoch: 22 February)

Event Time Altitude Azimuth Distance (km) Brightness Sun altitude
Rises 18:08:53 0° 169° (S) 3,229 6.8 -18.0°
Reaches altitude 10° 18:11:13 10° 171° (S) 2,292 6.0 -18.4°
Maximum altitude 18:16:15 73° 256° (WSW) 785 3.6 -19.2°
Drops below altitude 10° 18:21:11 10° 342° (NNW) 2,245 6.0 -20.0°
Sets 18:23:27 0° 344° (NNW) 3,158 6.7 -20.4°
